Weather History for KBBW - February, 2013

Change the Weather History Date:

Monday, February 25, 2013

  Actual Average Record
Temperature  
Mean Temperature 21 °F 31 °F  
Max Temperature 35 °F 44 °F 72 °F (1986)
Min Temperature 6 °F 18 °F -17 °F (2003)
Degree Days  
Heating Degree Days 44 34  
Month to date heating degree days 905 936  
Cooling Degree Days 0 0  
Month to date cooling degree days 0 0  
Year to date cooling degree days 0 0  
Moisture  
Dew Point 24 °F    
Average Humidity 77    
Maximum Humidity 92    
Minimum Humidity 61    
Precipitation  
Precipitation T in 0.02 in 0.50 in (1942)
Sea Level Pressure  
Sea Level Pressure 30.05 in    
Wind  
Wind Speed 8 mph (North)    
Max Wind Speed 16 mph    
Max Gust Speed 22 mph    
Visibility 9 miles    
Events Rain    
T = Trace of Precipitation, MM = Missing Value Source: NWS Daily Summary

Daily Weather History Graph

Daily Weather History Graph

Search for Another Location

Airport or City:

Trip Planner

Search our weather history database for the weather conditions in past years. The results will help you decide how hot, cold, wet, or windy it might be!

Date:

Astronomy

Feb. 25, 2013 Rise Set
Actual Time 7:18 AM CST 6:24 PM CST
Civil Twilight 6:50 AM CST 6:52 PM CST
Nautical Twilight 6:18 AM CST 7:24 PM CST
Astronomical Twilight 5:46 AM CST 7:56 PM CST
Moon 6:40 PM CST (2/25) 6:49 AM CST (2/25)
Length of Visible Light 12h 01m
Length of Day
11h 06m
Full, 100% of the Moon is Illuminated
Feb 25
Full
Feb 25
Full
Mar 4
Last Quarter
Mar 11
New
Mar 19
First Quarter

Hourly Weather History & Observations

Time (CST) Temp. Windchill Dew Point Humidity Pressure Visibility Wind Dir Wind Speed Gust Speed Precip Events Conditions
12:09 AM 28.4 °F 24.6 °F 26.6 °F 93% 30.03 in 10.0 mi North 3.5 mph - N/A   Overcast
12:53 AM 30.0 °F - 28.0 °F 92% 30.12 in 10.0 mi Calm Calm - N/A   Overcast
1:53 AM 30.0 °F 26.5 °F 28.0 °F 92% 30.13 in 9.0 mi NNW 3.5 mph - N/A   Overcast
2:00 AM 30.2 °F 26.7 °F 28.4 °F 93% 30.05 in 9.0 mi NNW 3.5 mph - N/A   Overcast
2:53 AM 30.9 °F 26.2 °F 28.9 °F 92% 30.12 in 7.0 mi North 4.6 mph - N/A   Overcast
3:35 AM 32.0 °F 22.5 °F 30.2 °F 93% 30.02 in 3.0 mi North 12.7 mph - 0.00 in Rain Light Freezing Rain
3:53 AM 30.9 °F 20.2 °F 30.0 °F 96% 30.07 in 5.0 mi North 15.0 mph - 0.00 in Rain Light Freezing Rain
4:13 AM 30.2 °F 20.2 °F 28.4 °F 93% 30.00 in 7.0 mi NNW 12.7 mph - 0.00 in   Overcast
4:20 AM 30.2 °F 19.8 °F 28.4 °F 93% 30.01 in 7.0 mi North 13.8 mph - 0.00 in   Overcast
4:53 AM 30.9 °F 19.4 °F 28.9 °F 92% 30.08 in 8.0 mi North 17.3 mph - 0.00 in   Overcast
5:53 AM 30.0 °F 21.7 °F 27.0 °F 88% 30.12 in 10.0 mi North 9.2 mph - N/A   Overcast
6:53 AM 28.9 °F 20.4 °F 25.0 °F 85% 30.12 in 10.0 mi North 9.2 mph - N/A   Overcast
7:53 AM 27.0 °F 15.6 °F 23.0 °F 85% 30.12 in 10.0 mi North 13.8 mph - N/A   Scattered Clouds
8:08 AM 28.4 °F 18.5 °F 24.8 °F 86% 30.04 in 10.0 mi North 11.5 mph - N/A   Mostly Cloudy
8:43 AM 28.4 °F 18.0 °F 24.8 °F 86% 30.04 in 10.0 mi North 12.7 mph - N/A   Scattered Clouds
8:53 AM 30.0 °F 20.5 °F 24.1 °F 79% 30.12 in 10.0 mi North 11.5 mph - N/A   Clear
9:53 AM 30.9 °F 21.7 °F 25.0 °F 79% 30.12 in 10.0 mi North 11.5 mph - N/A   Scattered Clouds
10:50 AM 30.2 °F 21.3 °F 26.6 °F 86% 30.04 in 10.0 mi North 10.4 mph - N/A   Mostly Cloudy
10:53 AM 30.9 °F 22.2 °F 25.0 °F 79% 30.11 in 10.0 mi North 10.4 mph - N/A   Mostly Cloudy
11:06 AM 32.0 °F 24.8 °F 24.8 °F 75% 30.04 in 10.0 mi North 8.1 mph - N/A   Scattered Clouds
11:53 AM 33.8 °F 24.8 °F 24.8 °F 70% 30.03 in 10.0 mi North 12.7 mph - N/A   Partly Cloudy
12:53 PM 32.0 °F 22.1 °F 25.0 °F 75% 30.07 in 10.0 mi North 13.8 mph - N/A   Partly Cloudy
1:53 PM 33.1 °F 23.0 °F 24.1 °F 70% 30.04 in 10.0 mi North 15.0 mph - N/A   Clear
2:53 PM 34.0 °F 25.5 °F 24.1 °F 67% 30.03 in 10.0 mi North 11.5 mph - N/A   Clear
3:53 PM 34.0 °F 26.6 °F 23.0 °F 64% 30.02 in 10.0 mi NE 9.2 mph - N/A   Clear
4:53 PM 34.0 °F 28.0 °F 21.9 °F 61% 30.01 in 10.0 mi NNE 6.9 mph - N/A   Clear
5:53 PM 30.9 °F 24.3 °F 21.0 °F 67% 30.01 in 10.0 mi North 6.9 mph - N/A   Clear
6:53 PM 24.1 °F 17.0 °F 19.0 °F 81% 30.02 in 10.0 mi North 5.8 mph - N/A   Clear
7:53 PM 23.0 °F 14.7 °F 17.1 °F 78% 30.02 in 10.0 mi North 6.9 mph - N/A   Clear
8:53 PM 21.2 °F - 15.8 °F 80% 29.92 in 10.0 mi Calm Calm - N/A   Clear
9:53 PM 17.1 °F - 12.9 °F 84% 30.00 in 10.0 mi Calm Calm - N/A   Clear
10:53 PM 12.0 °F - 9.0 °F 88% 30.00 in 10.0 mi Calm Calm - N/A   Clear
11:53 PM 12.0 °F 4.1 °F 10.0 °F 92% 29.98 in 10.0 mi NNW 4.6 mph - N/A   Clear